sat.trackr.live / text

‹ back to catalog

STARLINK-5226

NORAD 54056 · 2022-136F

PAYLOAD ACTIVE UNKNOWN

§ Identity

Operator
Country
US
Launch date
2022-10-20
Launch site
AFETR
Launch vehicle
Mass (kg)
RCS (m²)

Purposes: comms

External: N2YO · Heavens-Above · Gunter

§ Orbital elements

Epoch: 2026-05-25T00:32:44.405088Z

Period
95.44 min
Inclination
53.2142°
Eccentricity
0.0001334
Mean motion
15.08837289 rev/d
Perigee alt
538.8 km
Apogee alt
540.7 km
Semi-major
6,917.9 km
B*
3.4236e-5
RAAN
1.0345°
Arg perigee
85.3859°
Mean anomaly
274.7285°
Rev number
19,837

§ Raw data

STARLINK-52261 54056U 22136F   26145.02273617  .00000257  00000+0  34236-4 0  99952 54056  53.2142   1.0345 0001334  85.3859 274.7285 15.08837289198375

JSON: /api/v1/satellites/54056 · /tle

For live sub-satellite position, see the globe view (requires WebGL).

§ Visibility from observer

Set your observer location to see the next 7 days of passes ≥ 10°. The values pass through the URL so the page stays shareable.

No JS? Fill the form by hand. The geolocation button needs JavaScript.